Weather History for KTWF - May, 2013

Change the Weather History Date:

Friday, May 31, 2013

  Actual Average Record
Temperature  
Mean Temperature 57 °F -  
Max Temperature 71 °F 75 °F 92 °F (1986)
Min Temperature 43 °F 46 °F 35 °F (2000)
Degree Days  
Heating Degree Days 8 6  
Month to date heating degree days 230 288  
Since 1 July heating degree days 5682 6084  
Cooling Degree Days 0 1  
Month to date cooling degree days 25 21  
Year to date cooling degree days 25 22  
Growing Degree Days 8 (Base 50)    
Moisture  
Dew Point 24 °F    
Average Humidity 36    
Maximum Humidity 62    
Minimum Humidity 10    
Precipitation  
Precipitation 0.00 in 0.04 in 1.08 in (1990)
Month to date precipitation 0.35 1.36  
Year to date precipitation 2.85 5.33  
Sea Level Pressure  
Sea Level Pressure 30.08 in    
Wind  
Wind Speed 17 mph (WSW)    
Max Wind Speed 25 mph    
Max Gust Speed 33 mph    
Visibility 10 miles    
Events      
T = Trace of Precipitation, MM = Missing Value Source: NWS Daily Summary

Daily Weather History Graph

Daily Weather History Graph

Search for Another Location

Airport or City:

Trip Planner

Search our weather history database for the weather conditions in past years. The results will help you decide how hot, cold, wet, or windy it might be!

Date:

Astronomy

May. 31, 2013 Rise Set
Actual Time 6:03 AM MDT 9:08 PM MDT
Civil Twilight 5:29 AM MDT 9:42 PM MDT
Nautical Twilight 4:46 AM MDT 10:25 PM MDT
Astronomical Twilight 3:54 AM MDT 11:17 PM MDT
Moon 1:39 AM MDT (5/31) 1:29 PM MDT (5/31)
Length of Visible Light 16h 12m
Length of Day
15h 04m
Waning Gibbous, 51% of the Moon is Illuminated
May 31
Waning Gibbous
May 31
Last Quarter
Jun 8
New
Jun 16
First Quarter
Jun 23
Full

Hourly Weather History & Observations

Time (MDT) Temp. Windchill Dew Point Humidity Pressure Visibility Wind Dir Wind Speed Gust Speed Precip Events Conditions
12:53 AM 48.0 °F - 28.9 °F 48% 29.97 in 10.0 mi SW 15.0 mph - N/A   Clear
1:53 AM 46.9 °F - 30.0 °F 52% 29.99 in 10.0 mi SW 15.0 mph - N/A   Clear
2:53 AM 46.0 °F 39.6 °F 32.0 °F 58% 30.00 in 10.0 mi SW 15.0 mph - N/A   Clear
3:53 AM 44.1 °F 37.1 °F 32.0 °F 63% 30.03 in 10.0 mi SSW 15.0 mph - N/A   Clear
4:53 AM 45.0 °F 38.2 °F 30.0 °F 56% 30.03 in 10.0 mi SW 15.0 mph - N/A   Clear
5:53 AM 45.0 °F 38.5 °F 28.9 °F 53% 30.05 in 10.0 mi SW 13.8 mph 23.0 mph N/A   Clear
6:53 AM 45.0 °F 37.4 °F 30.0 °F 56% 30.08 in 10.0 mi SW 18.4 mph 25.3 mph N/A   Clear
7:53 AM 48.9 °F - 30.9 °F 50% 30.10 in 10.0 mi SW 18.4 mph 25.3 mph N/A   Clear
8:53 AM 53.1 °F - 30.9 °F 43% 30.12 in 10.0 mi WSW 23.0 mph 29.9 mph N/A   Clear
9:53 AM 55.9 °F - 28.9 °F 36% 30.13 in 10.0 mi WSW 24.2 mph 31.1 mph N/A   Clear
10:53 AM 60.1 °F - 27.0 °F 28% 30.12 in 10.0 mi West 24.2 mph 28.8 mph N/A   Clear
11:53 AM 63.0 °F - 28.0 °F 27% 30.13 in 10.0 mi West 24.2 mph 29.9 mph N/A   Clear
12:53 PM 64.9 °F - 25.0 °F 22% 30.11 in 10.0 mi West 23.0 mph 29.9 mph N/A   Clear
1:53 PM 66.9 °F - 21.0 °F 17% 30.10 in 10.0 mi West 18.4 mph 33.4 mph N/A   Clear
2:53 PM 69.1 °F - 19.9 °F 15% 30.10 in 10.0 mi West 19.6 mph 27.6 mph N/A   Clear
3:53 PM 69.1 °F - 18.0 °F 14% 30.09 in 10.0 mi West 19.6 mph 31.1 mph N/A   Clear
4:53 PM 71.1 °F - 17.1 °F 13% 30.08 in 10.0 mi West 19.6 mph 26.5 mph N/A   Clear
5:53 PM 70.0 °F - 15.1 °F 12% 30.08 in 10.0 mi West 18.4 mph 25.3 mph N/A   Clear
6:53 PM 69.1 °F - 10.9 °F 11% 30.08 in 10.0 mi West 19.6 mph 26.5 mph N/A   Clear
7:53 PM 66.0 °F - 16.0 °F 15% 30.07 in 10.0 mi WSW 18.4 mph 27.6 mph N/A   Clear
8:53 PM 62.1 °F - 18.0 °F 18% 30.08 in 10.0 mi SW 12.7 mph - N/A   Clear
9:53 PM 57.0 °F - 21.9 °F 26% 30.12 in 10.0 mi West 5.8 mph - N/A   Clear
10:53 PM 51.1 °F - 21.0 °F 31% 30.14 in 10.0 mi SSW 6.9 mph - N/A   Clear
11:53 PM 48.9 °F - 24.1 °F 38% 30.14 in 10.0 mi South 11.5 mph - N/A   Clear